Regional Weather Roundup
Issued by NWS Sterling, VA

Home | Current Version | Previous Version | Graphics & Text | Print | Product List | Glossary On
Versions: 1 2 3 4 5 6 7 8 9 10 11 12 13 14 15 16 17 18 19 20 21 22 23 24 25 26 27
000
ASUS41 KLWX 290010
RWRLWX

REGIONAL WEATHER ROUNDUP
NATIONAL WEATHER SERVICE BALTIMORE MD/WASHINGTON DC
800 PM EDT SAT MAY 28 2016

Note: "FAIR" indicates few or no clouds below 12,000 feet
with no significant weather and/or obstructions to visibility.
 TC=TEMPERATURE CELSIUS

 * =Non NWS site. Station does not report precipitation (e.g. rain,
    snow, etc.), thunder, or fog.

DCZ001-MDZ009-015-VAZ040>042-051-053>054-290100-
WASHINGTON METRO

CITY           SKY/WX    TMP DP  RH WIND       PRES   REMARKS
WASHINGTON NAT MOCLDY    80  66  62 S9        30.12R
DULLES         MOCLDY    81  65  58 S8        30.12R
ANDREWS AFB    CLEAR     78  65  62 S8        30.12R
FT BELVOIR     FAIR      78  65  64 CALM      30.12R
QUANTICO       MOCLDY    79  68  69 S12       30.12R
COLLEGE PARK*  FAIR      82  63  51 S5        30.11R
LEESBURG*      FAIR      84  68  58 S6G17     30.12R
MANASSAS*      CLEAR     79  70  73 SE3       30.11R

$$

MDZ006>007-011-014-290100-
BALTIMORE METRO

CITY           SKY/WX    TMP DP  RH WIND       PRES   REMARKS
BWI AIRPORT    PTCLDY    78  58  49 S7        30.11R
MD SCIENCE CTR   N/A     80  58  46 MISG      30.12R
MARTIN STATE   PTCLDY    79  66  65 S8        30.13R
ANNAPOLIS      CLEAR     74  59  59 S10       30.12R
FORT MEADE*    CLEAR     75  59  57 SE6       30.14R

$$

MDZ012-015-019>023-290100-
MARYLAND EASTERN SHORE

CITY           SKY/WX    TMP DP  RH WIND       PRES   REMARKS
OCEAN CITY     CLEAR     68  63  84 SW5       30.17R
SALISBURY      CLEAR     74  55  51 S8        30.15R
BAY BRIDGE AP* CLEAR     79  59  50 S8        30.13R
CAMBRIDGE*     CLEAR     73  57  56 S6        30.14S
EASTON*        CLEAR     81  54  39 S7        30.17S

$$

MDZ017>025-290100-
SOUTHERN MARYLAND

CITY           SKY/WX    TMP DP  RH WIND       PRES   REMARKS
PATUXENT RIVER CLOUDY    75  58  55 S7        30.13S
ST INIGOES     CLEAR     75  64  68 SE10G17   30.13S
LEONARDTOWN*   CLEAR     75  55  50 SE6       30.15S

$$

MDZ003>005-290100-
NORTH CENTRAL MARYLAND

CITY           SKY/WX    TMP DP  RH WIND       PRES   REMARKS
FREDERICK*     CLEAR     81  66  61 S3        30.13R
HAGERSTOWN APT CLOUDY    86  63  45 S12       30.10R
WESTMINSTER*   CLOUDY    84  81  89 S6        30.13R HX  98

$$

MDZ501>502-290100-
WESTERN MARYLAND

CITY           SKY/WX    TMP DP  RH WIND       PRES   REMARKS
OAKLAND*       NOT AVBL
CUMBERLAND*    CLOUDY    82  66  57 S3        30.13R

$$

VAZ025>031-290100-
SHENANDOAH VALLEY

CITY           SKY/WX    TMP DP  RH WIND       PRES   REMARKS
WINCHESTER*    FAIR      81  63  54 S6        30.12R
FRONT ROYAL*   FAIR      81  63  54 CALM      30.11R
LURAY*         FAIR      79  61  53 S3        30.13R
NEW MARKET*    FAIR      77  62  58 S6        30.11S
STAUNTON*      FAIR      76  63  62 S3        30.17R
WAYNESBORO*    FAIR      77  60  56 S8        30.17R

$$

WVZ021-048>050-054>055-290100-
EASTERN WEST VIRGINIA PANHANDLE

CITY           SKY/WX    TMP DP  RH WIND       PRES   REMARKS
MARTINSBURG    FAIR      81  64  56 S7        30.10R
PETERSBURG*    FAIR      81  64  57 S3        30.12R

$$

VAZ036>039-050-290100-
CENTRAL FOOTHILLS

CITY           SKY/WX    TMP DP  RH WIND       PRES   REMARKS
CHARLOTTESVILL FAIR      79  62  56 S6        30.13R
CULPEPER*      FAIR      82  65  56 S3        30.12R
ORANGE*        FAIR      81  63  54 CALM      30.15R
GORDONSVILLE*  FAIR      79  65  62 CALM      30.13R
WARRENTON*     FAIR      81  60  48 S3        30.12R

$$

VAZ055>057-290100-
NORTH AND CENTRAL PIEDMONT

CITY           SKY/WX    TMP DP  RH WIND       PRES   REMARKS
FREDERICKSBRG* FAIR      81  66  60 S6        30.11S
STAFFORD*      FAIR      79  61  53 S5        30.16R

$$

NCZ024-NYZ072-PAZ021-071-VAZ022-071-290100-
OTHER REGIONAL OBSERVATIONS

CITY           SKY/WX    TMP DP  RH WIND       PRES   REMARKS
NEW YORK CITY  PTCLDY    82  65  56 CALM      30.11S
PHILADELPHIA   PTCLDY    82  64  54 S8        30.12R
PITTSBURGH     CLOUDY    86  63  45 VRB6      30.09R
ROANOKE        MOCLDY    77  61  57 SE8       30.17R
RICHMOND       MOCLDY    78  60  53 SE5       30.12S
RALEIGH        MOCLDY    80  61  52 E6        30.12R

$$

ANZ530>537-290100-
MARINE OBSERVATIONS

STATION/POSITION TIME  TEMP    WIND        PRES
                       AIR SEA DIR/SP/G
                 (UTC) (F)     (DEG/KT/KT) (MB)
THOMAS PT LIGHT  0000   74 66  170/ 13/ 14 1021.4R
BALT KEY BRIDGE  2300          140/ 13/ 14   N/A
COVE POINT       2300          190/ 14/ 16   N/A
LEWISETTA        2300          170/ 10/ 12   N/A
SOLOMONS ISLAND  2300          140/  8/  9   N/A
PINEY POINT      2300          160/ 13/ 14   N/A

$$





USA.gov is the U.S. government's official web portal to all federal, state and local government web resources and services.